SMOS

Last updated on Wed Jul 09 2025 00:02:28 GMT+0000 (Coordinated Universal Time)

1 36036U 09059A 25189.53083465 .00000182 00000+0 71836-4 0 9999 2 36036 98.4425 16.8606 0001361 99.5387 260.5955 14.39756316824002
UTC large
Height (km)
Speed (km/s)
/
Latitude / Longitude
Inclination (degrees)
Orbital Period (minutes)
Azimuth
Elevation
Range (km)
Doppler Factor

Next 0 passes for location: London (51.5072 / 0.1276)

Sorry there are no passes over London.